SV2MJJ Weather Reports


time (UTC)temp
C
wind
direction
speed
KPH
gust
KPH
rain 1hr
cm
rain 24hr
cm
rain mn
cm
humidity
%
barometer
mb
20260507123449 19 60 1.6 12.9 0.00 0.00 0.00 72 1013.5
20260507123357 19 115 1.6 12.9 0.00 0.00 0.00 71 1013.5
20260507123043 20 126 0.0 12.9 0.00 0.00 0.00 71 1013.6
20260507122909 19 69 0.0 6.4 0.00 0.00 0.00 71 1013.7
20260507122646 20 102 0.0 6.4 0.00 0.00 0.00 71 1013.7
20260507122601 20 136 0.0 6.4 0.00 0.00 0.00 71 1013.7
20260507122437 20 44 0.0 6.4 0.00 0.00 0.00 70 1013.7
20260507122238 19 123 0.0 6.4 0.00 0.00 0.00 71 1013.8
20260507122105 20 126 0.0 6.4 0.00 0.00 0.00 72 1013.7
20260507122038 20 124 0.0 6.4 0.00 0.00 0.00 73 1013.7
20260507121838 19 105 0.0 0.0 0.00 0.00 0.00 73 1013.8
20260507121640 19 105 0.0 0.0 0.00 0.00 0.00 74 1013.9
20260507121602 19 105 0.0 0.0 0.00 0.00 0.00 74 1013.9
20260507121434 19 105 0.0 0.0 0.00 0.00 0.00 74 1013.9
20260507121236 19 109 0.0 0.0 0.00 0.00 0.00 75 1013.9
20260507121102 19 109 0.0 0.0 0.00 0.00 0.00 75 1014.0
20260507121036 19 109 0.0 0.0 0.00 0.00 0.00 75 1014.0
20260507120853 19 109 0.0 0.0 0.00 0.00 0.00 75 1014.1
20260507120803 19 46 0.0 0.0 0.00 0.00 0.00 76 1014.0
20260507120739 18 46 0.0 0.0 0.00 0.00 0.00 75 1014.1
20260507120400 18 46 0.0 0.0 0.00 0.00 0.00 76 1014.1
20260507120315 18 45 0.0 0.0 0.00 0.00 0.00 76 1014.1
20260507115853 18 46 0.0 0.0 0.00 0.00 0.00 76 1014.1
20260507115637 18 46 1.6 11.3 0.00 0.00 0.00 76 1014.1
20260507115601 18 46 1.6 12.9 0.00 0.00 0.00 76 1014.0
20260507115434 18 46 1.6 12.9 0.00 0.00 0.00 76 1014.0
20260507115234 18 46 1.6 12.9 0.00 0.00 0.00 76 1013.9
20260507115121 18 46 1.6 12.9 0.00 0.00 0.00 76 1013.8
20260507115102 18 46 1.6 12.9 0.00 0.00 0.00 76 1013.8
20260507115001 18 45 3.2 12.9 0.00 0.00 0.00 76 1013.8
20260507114906 18 155 3.2 14.5 0.00 0.00 0.00 76 1013.7
20260507114555 18 90 3.2 14.5 0.00 0.00 0.00 76 1013.5
20260507114504 18 116 3.2 14.5 0.00 0.00 0.00 76 1013.3
20260507114423 18 106 4.8 14.5 0.00 0.00 0.00 76 1013.4
20260507114056 18 134 4.8 14.5 0.00 0.00 0.00 76 1013.6
20260507114008 18 97 3.2 11.3 0.00 0.00 0.00 76 1014.0
20260507113657 18 146 3.2 11.3 0.00 0.00 0.00 75 1014.0
20260507113611 18 113 3.2 9.7 0.00 0.00 0.00 76 1014.1
20260507113534 18 119 1.6 9.7 0.00 0.00 0.00 75 1014.1
20260507113517 18 129 1.6 9.7 0.00 0.00 0.00 75 1014.1
20260507113417 18 123 1.6 9.7 0.00 0.00 0.00 74 1014.3
20260507112749 18 117 1.6 9.7 0.00 0.00 0.00 75 1014.4
20260507112139 19 109 0.0 1.6 0.00 0.00 0.00 76 1014.5
20260507112036 19 111 0.0 1.6 0.00 0.00 0.00 76 1014.5
20260507111948 19 132 0.0 0.0 0.00 0.00 0.00 77 1014.5
20260507111229 19 351 0.0 0.0 0.00 0.00 0.00 79 1014.5
20260507111102 19 351 0.0 0.0 0.00 0.00 0.00 79 1014.5
20260507111027 19 351 0.0 0.0 0.00 0.00 0.00 79 1014.5
20260507110917 18 351 0.0 0.0 0.00 0.00 0.00 79 1014.5
20260507110829 18 351 0.0 0.0 0.00 0.00 0.00 79 1014.4
20260507110427 18 351 0.0 0.0 0.00 0.00 0.00 79 1014.5
20260507110227 18 351 0.0 4.8 0.00 0.00 0.00 78 1014.6
20260507110110 18 351 0.0 6.4 0.00 0.00 0.00 78 1014.6
20260507110025 18 351 0.0 6.4 0.00 0.00 0.00 78 1014.6
20260507105836 18 351 0.0 6.4 0.00 0.00 0.00 78 1014.6
20260507105609 18 351 0.0 6.4 0.00 0.00 0.00 77 1014.6
20260507105419 18 351 0.0 6.4 0.00 0.00 0.00 76 1014.6
20260507105221 19 351 0.0 4.8 0.00 0.00 0.00 76 1014.6
20260507105141 19 351 0.0 0.0 0.00 0.00 0.00 76 1014.6
20260507105118 19 338 0.0 0.0 0.00 0.00 0.00 76 1014.6
20260507104602 19 1 0.0 0.0 0.00 0.00 0.00 76 1014.6
20260507104419 19 1 0.0 6.4 0.00 0.00 0.00 75 1014.6
20260507104324 19 1 0.0 6.4 0.00 0.00 0.00 74 1014.6
20260507104253 19 1 0.0 6.4 0.00 0.00 0.00 74 1014.7
20260507103813 19 5 0.0 6.4 0.00 0.00 0.00 72 1014.6
20260507103604 19 13 0.0 6.4 0.00 0.00 0.00 72 1014.4
20260507103411 19 18 0.0 6.4 0.00 0.00 0.00 72 1014.5
20260507103211 19 18 0.0 6.4 0.00 0.00 0.00 72 1014.4
20260507103102 19 18 0.0 6.4 0.00 0.00 0.00 72 1014.4
20260507103011 19 18 0.0 6.4 0.00 0.00 0.00 72 1014.4
20260507102813 19 18 0.0 6.4 0.00 0.00 0.00 72 1014.3
20260507102600 19 18 1.6 6.4 0.00 0.00 0.00 72 1014.4
20260507102410 19 18 0.0 6.4 0.00 0.00 0.00 72 1014.4
20260507102211 19 18 0.0 6.4 0.00 0.00 0.00 71 1014.5
20260507102102 19 18 0.0 6.4 0.00 0.00 0.00 70 1014.5
20260507102010 19 18 0.0 6.4 0.00 0.00 0.00 70 1014.6
20260507101812 19 22 0.0 6.4 0.00 0.00 0.00 70 1014.5
20260507101614 19 20 0.0 0.0 0.00 0.00 0.00 70 1014.6
20260507101602 20 20 0.0 0.0 0.00 0.00 0.00 70 1014.6
20260507101409 20 169 0.0 0.0 0.00 0.00 0.00 70 1014.5
20260507101319 20 169 0.0 0.0 0.00 0.00 0.00 70 1014.5
20260507101251 20 169 0.0 0.0 0.00 0.00 0.00 70 1014.5
20260507100914 20 169 0.0 0.0 0.00 0.00 0.00 69 1014.5
20260507100606 20 169 0.0 0.0 0.00 0.00 0.00 70 1014.4
20260507100417 20 169 0.0 0.0 0.00 0.00 0.00 69 1014.4
20260507100327 20 169 0.0 0.0 0.00 0.00 0.00 69 1014.4
20260507100300 20 169 0.0 0.0 0.00 0.00 0.00 69 1014.3
20260507095917 20 169 0.0 0.0 0.00 0.00 0.00 69 1014.2
20260507095822 20 169 0.0 0.0 0.00 0.00 0.00 69 1014.2
20260507095700 20 169 0.0 0.0 0.00 0.00 0.00 69 1014.2
20260507095335 20 169 0.0 0.0 0.00 0.00 0.00 69 1014.2
20260507095305 20 169 0.0 0.0 0.00 0.00 0.00 69 1014.2
20260507095214 20 169 0.0 0.0 0.00 0.00 0.00 68 1014.2
20260507095127 20 169 0.0 0.0 0.00 0.00 0.00 68 1014.2
20260507094522 20 169 0.0 0.0 0.00 0.00 0.00 67 1014.2
20260507093912 20 169 0.0 0.0 0.00 0.00 0.00 66 1014.2
20260507093606 20 169 0.0 0.0 0.00 0.00 0.00 65 1014.3
20260507093406 20 169 0.0 0.0 0.00 0.00 0.00 66 1014.2
20260507093206 20 169 0.0 0.0 0.00 0.00 0.00 66 1014.2
20260507093103 20 169 0.0 0.0 0.00 0.00 0.00 65 1014.3
20260507093014 20 169 0.0 0.0 0.00 0.00 0.00 65 1014.2
20260507092807 20 169 0.0 0.0 0.00 0.00 0.00 65 1014.2
20260507092606 20 169 0.0 0.0 0.00 0.00 0.00 65 1014.3
20260507092407 20 169 0.0 0.0 0.00 0.00 0.00 64 1014.3
20260507092206 20 169 0.0 0.0 0.00 0.00 0.00 63 1014.3
20260507092101 20 169 0.0 0.0 0.00 0.00 0.00 64 1014.3
20260507092009 20 169 0.0 0.0 0.00 0.00 0.00 65 1014.3
20260507091805 20 169 0.0 0.0 0.00 0.00 0.00 65 1014.2
20260507091606 20 169 0.0 0.0 0.00 0.00 0.00 65 1014.3
20260507091507 20 169 0.0 0.0 0.00 0.00 0.00 65 1014.2
20260507091101 20 169 0.0 0.0 0.00 0.00 0.00 64 1014.3
20260507091012 20 188 0.0 0.0 0.00 0.00 0.00 64 1014.3
20260507090914 20 188 0.0 0.0 0.00 0.00 0.00 63 1014.3
20260507090605 20 296 0.0 0.0 0.00 0.00 0.00 62 1014.3
20260507090406 20 296 0.0 0.0 0.00 0.00 0.00 59 1014.2
20260507090206 20 296 0.0 0.0 0.00 0.00 0.00 59 1014.3
20260507090101 20 296 0.0 0.0 0.00 0.00 0.00 58 1014.2
20260507090009 20 296 0.0 0.0 0.00 0.00 0.00 59 1014.2
20260507085911 20 296 0.0 0.0 0.00 0.00 0.00 58 1014.2
20260507085818 20 296 0.0 0.0 0.00 0.00 0.00 59 1014.1
20260507085437 20 296 0.0 0.0 0.00 0.00 0.00 59 1014.0
20260507085316 20 296 0.0 0.0 0.00 0.00 0.00 58 1014.0
20260507085246 20 296 0.0 0.0 0.00 0.00 0.00 57 1014.0
20260507084806 20 296 0.0 0.0 0.00 0.00 0.00 56 1014.0
20260507084655 20 296 0.0 0.0 0.00 0.00 0.00 55 1014.0
20260507084604 20 296 0.0 0.0 0.00 0.00 0.00 55 1014.0
20260507084240 20 296 0.0 0.0 0.00 0.00 0.00 57 1013.9
20260507084213 20 296 0.0 0.0 0.00 0.00 0.00 57 1013.8
20260507084123 20 76 0.0 0.0 0.00 0.00 0.00 57 1013.7
20260507083407 20 92 0.0 0.0 0.00 0.00 0.00 56 1013.5
20260507083207 20 92 0.0 0.0 0.00 0.00 0.00 57 1013.5
20260507083111 20 93 0.0 0.0 0.00 0.00 0.00 57 1013.5
20260507083039 20 92 0.0 0.0 0.00 0.00 0.00 57 1013.5
20260507082945 20 92 0.0 0.0 0.00 0.00 0.00 57 1013.5
20260507082637 20 93 0.0 0.0 0.00 0.00 0.00 58 1013.4
20260507082545 20 93 0.0 0.0 0.00 0.00 0.00 58 1013.4
20260507082450 20 93 0.0 0.0 0.00 0.00 0.00 57 1013.3
20260507082419 20 93 0.0 0.0 0.00 0.00 0.00 58 1013.3
20260507081611 20 93 0.0 0.0 0.00 0.00 0.00 59 1013.2
20260507081459 20 93 0.0 0.0 0.00 0.00 0.00 60 1013.1
20260507081412 20 93 0.0 0.0 0.00 0.00 0.00 60 1013.1
20260507081342 20 93 0.0 0.0 0.00 0.00 0.00 61 1013.1
20260507081319 20 93 0.0 0.0 0.00 0.00 0.00 61 1013.1
20260507081221 20 93 0.0 0.0 0.00 0.00 0.00 61 1013.1
20260507080205 20 93 0.0 0.0 0.00 0.00 0.00 62 1013.0
20260507080008 20 93 0.0 0.0 0.00 0.00 0.00 62 1013.1
20260507075818 20 93 0.0 0.0 0.00 0.00 0.00 61 1013.0
20260507075717 20 93 0.0 0.0 0.00 0.00 0.00 61 1012.9
20260507075624 20 93 0.0 0.0 0.00 0.00 0.00 62 1013.0
20260507075251 20 92 0.0 0.0 0.00 0.00 0.00 63 1012.8
20260507075154 20 93 0.0 0.0 0.00 0.00 0.00 63 1012.9
20260507075058 20 93 0.0 0.0 0.00 0.00 0.00 65 1012.8
20260507075009 20 93 0.0 0.0 0.00 0.00 0.00 66 1012.8
20260507074708 20 93 0.0 0.0 0.00 0.00 0.00 66 1012.8
20260507074340 19 92 0.0 0.0 0.00 0.00 0.00 66 1012.7
20260507074314 19 92 0.0 0.0 0.00 0.00 0.00 66 1012.7
20260507073915 19 93 0.0 0.0 0.00 0.00 0.00 66 1012.7
20260507073524 19 93 0.0 0.0 0.00 0.00 0.00 68 1012.8
20260507072912 19 93 0.0 0.0 0.00 0.00 0.00 68 1012.7
20260507072818 19 93 0.0 0.0 0.00 0.00 0.00 68 1012.7
20260507072406 19 93 0.0 0.0 0.00 0.00 0.00 68 1012.6
20260507072207 19 93 0.0 0.0 0.00 0.00 0.00 68 1012.6
20260507072104 18 93 0.0 0.0 0.00 0.00 0.00 69 1012.6
20260507072006 18 93 0.0 0.0 0.00 0.00 0.00 69 1012.6
20260507071807 18 92 0.0 0.0 0.00 0.00 0.00 69 1012.7
20260507071606 18 92 0.0 0.0 0.00 0.00 0.00 69 1012.7
20260507071407 18 92 0.0 0.0 0.00 0.00 0.00 69 1012.7
20260507071207 18 92 0.0 0.0 0.00 0.00 0.00 69 1012.7
20260507071101 18 92 0.0 0.0 0.00 0.00 0.00 69 1012.7
20260507071007 18 92 0.0 0.0 0.00 0.00 0.00 70 1012.7
20260507070815 18 92 0.0 0.0 0.00 0.00 0.00 70 1012.7
20260507070721 18 92 0.0 0.0 0.00 0.00 0.00 70 1012.6
20260507070619 18 140 0.0 0.0 0.00 0.00 0.00 70 1012.6
20260507070527 18 140 0.0 0.0 0.00 0.00 0.00 70 1012.7
20260507065909 18 255 0.0 0.0 0.00 0.00 0.00 70 1012.7
20260507065816 18 255 0.0 0.0 0.00 0.00 0.00 70 1012.6
20260507065507 18 255 0.0 0.0 0.00 0.00 0.00 70 1012.7
20260507065125 18 255 0.0 0.0 0.00 0.00 0.00 70 1012.7
20260507065007 18 255 0.0 0.0 0.00 0.00 0.00 70 1012.7
20260507064805 18 255 0.0 0.0 0.00 0.00 0.00 69 1012.7
20260507064606 18 257 0.0 0.0 0.00 0.00 0.00 70 1012.8
20260507064408 18 257 0.0 0.0 0.00 0.00 0.00 70 1012.7
20260507064206 18 257 0.0 0.0 0.00 0.00 0.00 70 1012.8
20260507064102 18 257 0.0 0.0 0.00 0.00 0.00 69 1012.7
20260507064007 18 257 0.0 0.0 0.00 0.00 0.00 69 1012.7
20260507063808 17 257 0.0 0.0 0.00 0.00 0.00 69 1012.7
20260507063605 17 257 0.0 0.0 0.00 0.00 0.00 70 1012.7
20260507063405 17 257 0.0 0.0 0.00 0.00 0.00 70 1012.7
20260507063207 17 257 0.0 0.0 0.00 0.00 0.00 69 1012.7
20260507063104 17 257 0.0 0.0 0.00 0.00 0.00 69 1012.8
20260507063007 17 257 0.0 0.0 0.00 0.00 0.00 69 1012.8
20260507062833 17 257 0.0 0.0 0.00 0.00 0.00 69 1012.8
20260507062732 18 257 0.0 0.0 0.00 0.00 0.00 68 1012.8
20260507062338 18 257 0.0 0.0 0.00 0.00 0.00 68 1012.7
20260507062306 18 257 0.0 0.0 0.00 0.00 0.00 69 1012.8
20260507062241 18 257 0.0 0.0 0.00 0.00 0.00 69 1012.7
20260507062153 18 257 0.0 0.0 0.00 0.00 0.00 68 1012.8
20260507061406 18 257 0.0 0.0 0.00 0.00 0.00 69 1012.7
20260507061205 18 257 0.0 0.0 0.00 0.00 0.00 69 1012.8
20260507061102 18 257 0.0 0.0 0.00 0.00 0.00 69 1012.8
20260507061009 18 257 0.0 0.0 0.00 0.00 0.00 68 1012.8
20260507060812 18 257 0.0 0.0 0.00 0.00 0.00 68 1012.8
20260507060708 18 257 0.0 0.0 0.00 0.00 0.00 68 1012.7
20260507060622 18 257 0.0 0.0 0.00 0.00 0.00 68 1012.7
20260507060528 18 257 0.0 0.0 0.00 0.00 0.00 69 1012.7
20260507060226 18 257 0.0 0.0 0.00 0.00 0.00 68 1012.7
20260507060138 18 257 0.0 0.0 0.00 0.00 0.00 68 1012.6
20260507055405 18 257 0.0 0.0 0.00 0.00 0.00 68 1012.6
20260507055206 18 257 0.0 0.0 0.00 0.00 0.00 68 1012.7
20260507055103 18 257 0.0 0.0 0.00 0.00 0.00 68 1012.7
20260507055008 18 257 0.0 0.0 0.00 0.00 0.00 68 1012.7
20260507054805 18 257 0.0 0.0 0.00 0.00 0.00 68 1012.7
20260507054605 18 257 0.0 0.0 0.00 0.00 0.00 67 1012.6
20260507054408 18 257 0.0 0.0 0.00 0.00 0.00 67 1012.6
20260507054206 17 257 0.0 0.0 0.00 0.00 0.00 67 1012.6
20260507054131 17 257 0.0 0.0 0.00 0.00 0.00 67 1012.6
20260507054107 17 257 0.0 0.0 0.00 0.00 0.00 66 1012.6
20260507054011 17 257 0.0 0.0 0.00 0.00 0.00 67 1012.6
20260507053705 17 257 0.0 0.0 0.00 0.00 0.00 67 1012.6
20260507053311 17 257 0.0 0.0 0.00 0.00 0.00 66 1012.6
20260507053244 17 257 0.0 0.0 0.00 0.00 0.00 66 1012.5
20260507052808 17 257 0.0 0.0 0.00 0.00 0.00 66 1012.5
20260507052629 17 257 0.0 0.0 0.00 0.00 0.00 66 1012.4
20260507052537 17 257 0.0 0.0 0.00 0.00 0.00 66 1012.4
20260507052443 17 257 0.0 0.0 0.00 0.00 0.00 66 1012.4
20260507052415 17 257 0.0 0.0 0.00 0.00 0.00 66 1012.4
20260507052350 17 257 0.0 0.0 0.00 0.00 0.00 66 1012.4
20260507052248 17 257 0.0 0.0 0.00 0.00 0.00 67 1012.4
20260507052200 17 257 0.0 0.0 0.00 0.00 0.00 67 1012.4
20260507051828 17 257 0.0 0.0 0.00 0.00 0.00 68 1012.3
20260507051456 16 257 0.0 0.0 0.00 0.00 0.00 68 1012.2
20260507051429 16 257 0.0 0.0 0.00 0.00 0.00 68 1012.3
20260507050405 16 257 0.0 0.0 0.00 0.00 0.00 69 1012.1
20260507050207 16 257 0.0 0.0 0.00 0.00 0.00 70 1012.2
20260507050104 16 257 0.0 0.0 0.00 0.00 0.00 70 1012.1
20260507050009 16 257 0.0 0.0 0.00 0.00 0.00 70 1012.1
20260507045808 16 257 0.0 0.0 0.00 0.00 0.00 71 1012.1
20260507045606 16 257 0.0 0.0 0.00 0.00 0.00 71 1012.1
20260507045408 16 257 0.0 0.0 0.00 0.00 0.00 71 1012.1
20260507045205 16 257 0.0 0.0 0.00 0.00 0.00 71 1012.1
20260507045103 16 257 0.0 0.0 0.00 0.00 0.00 71 1012.0
20260507045007 16 257 0.0 0.0 0.00 0.00 0.00 71 1012.1
20260507044805 15 257 0.0 0.0 0.00 0.00 0.00 71 1012.1
20260507044606 15 257 0.0 4.8 0.00 0.00 0.00 71 1012.1
20260507044414 15 257 1.6 6.4 0.00 0.00 0.00 71 1012.0
20260507044321 15 259 1.6 9.7 0.00 0.00 0.00 71 1012.0
20260507044251 15 259 1.6 9.7 0.00 0.00 0.00 71 1012.0
20260507044224 15 259 1.6 9.7 0.00 0.00 0.00 71 1011.9
20260507043819 15 260 0.0 9.7 0.00 0.00 0.00 72 1012.0
20260507043406 15 260 0.0 9.7 0.00 0.00 0.00 72 1012.0
20260507043317 15 260 0.0 3.2 0.00 0.00 0.00 72 1011.9
20260507043246 15 260 0.0 3.2 0.00 0.00 0.00 72 1011.9
20260507042807 15 260 0.0 0.0 0.00 0.00 0.00 72 1011.9
20260507042606 15 260 0.0 0.0 0.00 0.00 0.00 72 1011.9
20260507042407 15 260 0.0 0.0 0.00 0.00 0.00 72 1011.9
20260507042206 15 260 0.0 0.0 0.00 0.00 0.00 72 1012.0
20260507042101 15 260 0.0 0.0 0.00 0.00 0.00 72 1012.0
20260507042009 15 260 0.0 0.0 0.00 0.00 0.00 72 1011.9
20260507041807 15 260 0.0 6.4 0.00 0.00 0.00 72 1012.0
20260507041606 15 260 0.0 6.4 0.00 0.00 0.00 72 1011.9
20260507041407 15 261 0.0 6.4 0.00 0.00 0.00 72 1012.0
20260507041207 15 261 0.0 6.4 0.00 0.00 0.00 72 1012.0
20260507041102 15 261 0.0 6.4 0.00 0.00 0.00 72 1011.9
20260507041007 15 261 0.0 6.4 0.00 0.00 0.00 72 1011.9
20260507040807 15 261 0.0 4.8 0.00 0.00 0.00 72 1011.9
20260507040607 15 261 0.0 4.8 0.00 0.00 0.00 72 1011.9
20260507040408 15 261 0.0 4.8 0.00 0.00 0.00 72 1011.8
20260507040207 15 261 0.0 6.4 0.00 0.00 0.00 72 1011.8
20260507040124 15 261 0.0 6.4 0.00 0.00 0.00 72 1011.8
20260507040041 15 261 0.0 6.4 0.00 0.00 0.00 72 1011.8
20260507035948 15 261 1.6 6.4 0.00 0.00 0.00 72 1011.8
20260507035639 15 261 1.6 6.4 0.00 0.00 0.00 72 1011.7
20260507035550 15 261 1.6 6.4 0.00 0.00 0.00 72 1011.8
20260507035457 15 261 1.6 6.4 0.00 0.00 0.00 73 1011.8
20260507035423 15 261 1.6 6.4 0.00 0.00 0.00 73 1011.7
20260507035053 15 236 1.6 8.0 0.00 0.00 0.00 73 1011.7
20260507034954 15 223 1.6 8.0 0.00 0.00 0.00 73 1011.6
20260507034906 15 259 1.6 8.0 0.00 0.00 0.00 73 1011.6
20260507034504 15 259 3.2 9.7 0.00 0.00 0.00 73 1011.7
20260507033618 15 239 1.6 9.7 0.00 0.00 0.00 73 1011.7
20260507033509 15 274 1.6 9.7 0.00 0.00 0.00 73 1011.6
20260507033413 15 243 0.0 9.7 0.00 0.00 0.00 73 1011.6
20260507033344 15 262 0.0 6.4 0.00 0.00 0.00 73 1011.6
20260507032611 15 259 0.0 6.4 0.00 0.00 0.00 73 1011.5
20260507032554 15 259 0.0 6.4 0.00 0.00 0.00 73 1011.5
20260507032353 14 259 1.6 6.4 0.00 0.00 0.00 73 1011.5
20260507032216 14 238 1.6 6.4 0.00 0.00 0.00 73 1011.6
20260507032143 14 237 1.6 6.4 0.00 0.00 0.00 73 1011.6
20260507032055 14 236 1.6 6.4 0.00 0.00 0.00 73 1011.6
20260507031613 14 238 1.6 6.4 0.00 0.00 0.00 73 1011.6
20260507031552 14 234 1.6 6.4 0.00 0.00 0.00 73 1011.6
20260507031349 14 248 1.6 6.4 0.00 0.00 0.00 73 1011.5
20260507031151 14 260 1.6 9.7 0.00 0.00 0.00 73 1011.5
20260507031103 14 259 1.6 9.7 0.00 0.00 0.00 73 1011.5
20260507030949 14 259 1.6 9.7 0.00 0.00 0.00 73 1011.5
20260507030746 14 223 1.6 9.7 0.00 0.00 0.00 73 1011.6
20260507030601 14 263 3.2 9.7 0.00 0.00 0.00 73 1011.5
20260507030543 14 263 3.2 9.7 0.00 0.00 0.00 73 1011.5
20260507030343 14 255 3.2 9.7 0.00 0.00 0.00 73 1011.6
20260507030143 14 257 4.8 9.7 0.00 0.00 0.00 73 1011.5
20260507030101 14 252 4.8 9.7 0.00 0.00 0.00 73 1011.5
20260507025957 14 255 4.8 9.7 0.00 0.00 0.00 73 1011.5
20260507025856 14 246 4.8 9.7 0.00 0.00 0.00 73 1011.5
20260507025541 14 263 4.8 11.3 0.00 0.00 0.00 73 1011.5
20260507025341 14 266 4.8 11.3 0.00 0.00 0.00 73 1011.5
20260507025142 14 263 4.8 11.3 0.00 0.00 0.00 73 1011.4
20260507025101 14 256 4.8 11.3 0.00 0.00 0.00 73 1011.5
20260507024943 14 255 4.8 11.3 0.00 0.00 0.00 72 1011.4
20260507024814 15 262 4.8 11.3 0.00 0.00 0.00 72 1011.5
20260507024732 15 255 3.2 11.3 0.00 0.00 0.00 72 1011.4
20260507024712 15 260 3.2 11.3 0.00 0.00 0.00 72 1011.4
20260507024153 15 257 3.2 11.3 0.00 0.00 0.00 72 1011.4
20260507024133 15 258 3.2 11.3 0.00 0.00 0.00 72 1011.5
20260507024047 15 246 3.2 11.3 0.00 0.00 0.00 72 1011.4
20260507023605 15 253 1.6 8.0 0.00 0.00 0.00 72 1011.4
20260507023536 15 252 1.6 8.0 0.00 0.00 0.00 71 1011.4
20260507023335 15 244 1.6 8.0 0.00 0.00 0.00 71 1011.3
20260507023136 15 230 1.6 8.0 0.00 0.00 0.00 71 1011.3
20260507023103 15 230 1.6 8.0 0.00 0.00 0.00 71 1011.4
20260507022934 15 243 1.6 8.0 0.00 0.00 0.00 71 1011.4
20260507022737 15 244 1.6 6.4 0.00 0.00 0.00 71 1011.4
20260507022656 15 232 1.6 6.4 0.00 0.00 0.00 71 1011.3
20260507022632 15 232 1.6 6.4 0.00 0.00 0.00 71 1011.3
20260507022543 15 232 1.6 6.4 0.00 0.00 0.00 71 1011.3
20260507022439 15 232 1.6 6.4 0.00 0.00 0.00 71 1011.4
20260507022353 15 232 1.6 6.4 0.00 0.00 0.00 71 1011.4
20260507021335 15 235 0.0 4.8 0.00 0.00 0.00 71 1011.4
20260507021135 15 235 0.0 4.8 0.00 0.00 0.00 71 1011.4
20260507021103 15 235 0.0 4.8 0.00 0.00 0.00 71 1011.3
20260507020934 15 235 0.0 1.6 0.00 0.00 0.00 71 1011.4
20260507020734 15 235 0.0 1.6 0.00 0.00 0.00 71 1011.4
20260507020606 15 235 0.0 1.6 0.00 0.00 0.00 71 1011.4
20260507020535 15 235 0.0 1.6 0.00 0.00 0.00 71 1011.4
20260507020444 15 235 0.0 4.8 0.00 0.00 0.00 71 1011.3
20260507020353 15 235 0.0 4.8 0.00 0.00 0.00 72 1011.4
20260507020042 15 235 0.0 4.8 0.00 0.00 0.00 72 1011.4
20260507015601 15 235 0.0 4.8 0.00 0.00 0.00 72 1011.4
20260507015527 15 235 0.0 4.8 0.00 0.00 0.00 72 1011.4
20260507015328 15 235 1.6 8.0 0.00 0.00 0.00 72 1011.3
20260507015222 15 235 1.6 8.0 0.00 0.00 0.00 72 1011.3
20260507014720 15 235 1.6 8.0 0.00 0.00 0.00 72 1011.3
20260507014603 15 235 1.6 8.0 0.00 0.00 0.00 72 1011.3
20260507014525 15 235 1.6 8.0 0.00 0.00 0.00 72 1011.3
20260507014433 15 241 0.0 4.8 0.00 0.00 0.00 72 1011.3
20260507014109 15 242 0.0 4.8 0.00 0.00 0.00 72 1011.3
20260507014020 15 245 0.0 4.8 0.00 0.00 0.00 73 1011.3
20260507013602 15 283 0.0 0.0 0.00 0.00 0.00 73 1011.2
20260507013513 15 283 0.0 0.0 0.00 0.00 0.00 73 1011.2
20260507013416 15 283 0.0 0.0 0.00 0.00 0.00 72 1011.2
20260507013327 15 268 0.0 3.2 0.00 0.00 0.00 72 1011.2
20260507012916 15 267 0.0 3.2 0.00 0.00 0.00 72 1011.2
20260507012714 15 267 0.0 6.4 0.00 0.00 0.00 72 1011.3
20260507012603 15 265 0.0 6.4 0.00 0.00 0.00 72 1011.2
20260507012516 15 265 0.0 6.4 0.00 0.00 0.00 72 1011.2
20260507012416 15 265 1.6 6.4 0.00 0.00 0.00 72 1011.2
20260507012101 15 238 1.6 6.4 0.00 0.00 0.00 72 1011.2
20260507011938 15 237 1.6 6.4 0.00 0.00 0.00 72 1011.2
20260507011841 15 242 1.6 8.0 0.00 0.00 0.00 72 1011.3
20260507011508 15 242 1.6 8.0 0.00 0.00 0.00 72 1011.3
20260507011308 15 235 1.6 8.0 0.00 0.00 0.00 72 1011.3
20260507011111 15 235 0.0 8.0 0.00 0.00 0.00 72 1011.3
20260507011103 15 235 1.6 8.0 0.00 0.00 0.00 72 1011.3
20260507010910 15 239 1.6 8.0 0.00 0.00 0.00 72 1011.3
20260507010706 15 253 3.2 8.0 0.00 0.00 0.00 72 1011.2
20260507010603 15 253 3.2 11.3 0.00 0.00 0.00 72 1011.2
20260507010507 15 226 3.2 11.3 0.00 0.00 0.00 72 1011.3
20260507010412 15 225 3.2 11.3 0.00 0.00 0.00 72 1011.2
20260507010323 15 225 3.2 11.3 0.00 0.00 0.00 72 1011.2
20260507005907 15 239 1.6 11.3 0.00 0.00 0.00 72 1011.2
20260507005706 15 232 1.6 11.3 0.00 0.00 0.00 72 1011.2
20260507005601 15 212 1.6 6.4 0.00 0.00 0.00 72 1011.2
20260507005506 15 232 1.6 6.4 0.00 0.00 0.00 72 1011.2
20260507005307 15 240 0.0 6.4 0.00 0.00 0.00 72 1011.2
20260507005120 15 218 0.0 4.8 0.00 0.00 0.00 72 1011.3
20260507005105 15 218 0.0 4.8 0.00 0.00 0.00 72 1011.3
20260507004903 15 217 0.0 6.4 0.00 0.00 0.00 72 1011.3
20260507004701 15 217 0.0 6.4 0.00 0.00 0.00 72 1011.3
20260507004604 15 217 0.0 6.4 0.00 0.00 0.00 72 1011.2
20260507004508 15 211 0.0 6.4 0.00 0.00 0.00 72 1011.3
20260507004333 15 292 0.0 6.4 0.00 0.00 0.00 72 1011.2
20260507004249 15 292 0.0 6.4 0.00 0.00 0.00 72 1011.2
20260507004240 15 292 0.0 6.4 0.00 0.00 0.00 72 1011.2
20260507003806 15 229 1.6 6.4 0.00 0.00 0.00 72 1011.2
20260507003744 15 215 1.6 6.4 0.00 0.00 0.00 72 1011.1
20260507003249 15 215 1.6 8.0 0.00 0.00 0.00 72 1011.2
20260507003103 15 215 1.6 8.0 0.00 0.00 0.00 72 1011.1
20260507003046 15 215 1.6 8.0 0.00 0.00 0.00 72 1011.1
20260507002847 15 215 1.6 8.0 0.00 0.00 0.00 72 1011.1
20260507002646 15 231 1.6 8.0 0.00 0.00 0.00 72 1011.0
20260507002604 15 231 0.0 8.0 0.00 0.00 0.00 72 1011.2
20260507002447 15 232 0.0 4.8 0.00 0.00 0.00 72 1011.1
20260507002252 15 253 0.0 1.6 0.00 0.00 0.00 72 1011.1
20260507002210 15 250 0.0 1.6 0.00 0.00 0.00 72 1011.1
20260507002158 15 251 0.0 1.6 0.00 0.00 0.00 72 1011.1
20260507001641 15 259 0.0 1.6 0.00 0.00 0.00 72 1011.1
20260507001603 15 259 0.0 1.6 0.00 0.00 0.00 72 1011.1
20260507001443 15 259 0.0 11.3 0.00 0.00 0.00 73 1011.1
20260507001249 15 259 0.0 11.3 0.00 0.00 0.00 72 1011.1
20260507001208 15 259 1.6 11.3 0.00 0.00 0.00 73 1011.2
20260507001152 15 259 1.6 11.3 0.00 0.00 0.00 73 1011.2
20260507000726 15 259 1.6 11.3 0.00 0.00 0.00 73 1011.1
20260507000708 15 206 1.6 11.3 0.00 0.00 0.00 73 1011.2
20260507000632 15 205 3.2 11.3 0.00 0.00 0.00 73 1011.2
20260507000539 15 192 3.2 11.3 0.00 0.00 0.00 74 1011.3
20260507000459 15 213 3.2 11.3 0.00 0.00 0.00 74 1011.3
20260506235831 15 275 1.6 11.3 0.00 0.00 0.00 74 1011.2
20260506235437 15 236 1.6 8.0 0.00 0.00 0.00 74 1011.1
20260506235236 15 242 0.0 6.4 0.00 0.00 0.00 74 1011.1
20260506235101 15 288 0.0 6.4 0.00 0.00 0.00 73 1011.1
20260506235039 15 292 0.0 3.2 0.00 0.00 0.00 73 1011.1
20260506234835 15 292 0.0 3.2 0.00 0.00 0.00 73 1011.0
20260506234636 15 297 0.0 3.2 0.00 0.00 0.00 73 1011.0
20260506234604 15 298 0.0 3.2 0.00 0.00 0.00 73 1011.0
20260506234435 15 320 0.0 1.6 0.00 0.00 0.00 73 1011.0
20260506234235 15 321 0.0 0.0 0.00 0.00 0.00 72 1011.0
20260506234104 15 321 0.0 0.0 0.00 0.00 0.00 72 1011.0
20260506234042 15 321 0.0 0.0 0.00 0.00 0.00 73 1011.0
20260506233833 15 321 0.0 0.0 0.00 0.00 0.00 72 1011.0
20260506233634 16 321 0.0 3.2 0.00 0.00 0.00 72 1011.0
20260506233601 16 321 0.0 3.2 0.00 0.00 0.00 73 1010.9
20260506233433 16 321 0.0 3.2 0.00 0.00 0.00 73 1011.0
20260506233335 16 321 0.0 6.4 0.00 0.00 0.00 72 1011.1
20260506233258 16 221 0.0 6.4 0.00 0.00 0.00 72 1011.0
20260506233236 16 221 0.0 6.4 0.00 0.00 0.00 72 1011.0
20260506232602 16 225 0.0 6.4 0.00 0.00 0.00 72 1011.1
20260506232428 16 225 0.0 6.4 0.00 0.00 0.00 73 1011.1
20260506232225 16 235 0.0 1.6 0.00 0.00 0.00 73 1011.1
20260506232102 16 236 0.0 1.6 0.00 0.00 0.00 73 1011.0
20260506232024 16 236 0.0 1.6 0.00 0.00 0.00 73 1011.0
20260506231824 16 236 0.0 1.6 0.00 0.00 0.00 73 1011.0
20260506231729 16 235 0.0 1.6 0.00 0.00 0.00 73 1011.0
20260506231716 16 236 0.0 1.6 0.00 0.00 0.00 73 1011.1
20260506231251 16 235 0.0 0.0 0.00 0.00 0.00 74 1011.1
20260506231219 15 235 0.0 0.0 0.00 0.00 0.00 74 1011.1
20260506231155 15 235 0.0 0.0 0.00 0.00 0.00 74 1011.1
20260506231054 15 235 0.0 4.8 0.00 0.00 0.00 74 1011.1
20260506230934 15 235 0.0 4.8 0.00 0.00 0.00 75 1011.1
20260506230631 15 235 0.0 4.8 0.00 0.00 0.00 75 1011.2
20260506230535 15 235 0.0 4.8 0.00 0.00 0.00 75 1011.2
20260506225915 15 248 1.6 9.7 0.00 0.00 0.00 75 1011.3
20260506225825 15 248 3.2 9.7 0.00 0.00 0.00 75 1011.3
20260506225815 15 249 3.2 9.7 0.00 0.00 0.00 75 1011.4
20260506225732 15 249 3.2 9.7 0.00 0.00 0.00 75 1011.3
20260506225125 15 252 1.6 9.7 0.00 0.00 0.00 74 1011.4
20260506224614 16 262 0.0 4.8 0.00 0.00 0.00 74 1011.4
20260506224600 16 262 0.0 3.2 0.00 0.00 0.00 74 1011.4
20260506224412 16 232 0.0 3.2 0.00 0.00 0.00 74 1011.3
20260506224213 16 232 0.0 4.8 0.00 0.00 0.00 74 1011.3
20260506224100 16 232 0.0 4.8 0.00 0.00 0.00 74 1011.3
20260506224012 16 232 0.0 4.8 0.00 0.00 0.00 74 1011.3
20260506223812 16 232 0.0 4.8 0.00 0.00 0.00 74 1011.2
20260506223613 16 232 0.0 4.8 0.00 0.00 0.00 74 1011.3
20260506223558 16 232 0.0 4.8 0.00 0.00 0.00 74 1011.2
20260506223414 16 234 0.0 4.8 0.00 0.00 0.00 74 1011.3
20260506223214 16 234 0.0 6.4 0.00 0.00 0.00 74 1011.3
20260506223057 16 230 0.0 6.4 0.00 0.00 0.00 74 1011.3
20260506223013 16 247 0.0 6.4 0.00 0.00 0.00 74 1011.3
20260506222813 16 289 0.0 6.4 0.00 0.00 0.00 74 1011.3
20260506222613 16 289 0.0 6.4 0.00 0.00 0.00 74 1011.4
20260506222556 16 289 0.0 6.4 0.00 0.00 0.00 74 1011.3
20260506222412 16 290 0.0 6.4 0.00 0.00 0.00 74 1011.4
20260506222212 16 279 0.0 0.0 0.00 0.00 0.00 74 1011.4
20260506222056 16 271 0.0 0.0 0.00 0.00 0.00 74 1011.3
20260506222012 16 259 0.0 0.0 0.00 0.00 0.00 74 1011.3
20260506221813 16 231 0.0 0.0 0.00 0.00 0.00 74 1011.3
20260506221609 16 285 0.0 0.0 0.00 0.00 0.00 74 1011.3
20260506221553 16 285 0.0 0.0 0.00 0.00 0.00 74 1011.3
20260506221412 16 285 0.0 0.0 0.00 0.00 0.00 74 1011.2
20260506221209 16 285 0.0 0.0 0.00 0.00 0.00 74 1011.2
20260506221053 16 285 0.0 0.0 0.00 0.00 0.00 74 1011.2
20260506221008 16 285 0.0 0.0 0.00 0.00 0.00 74 1011.2
20260506220809 16 285 0.0 0.0 0.00 0.00 0.00 74 1011.2
20260506220717 16 263 0.0 6.4 0.00 0.00 0.00 74 1011.2
20260506220703 16 263 0.0 6.4 0.00 0.00 0.00 74 1011.2
20260506220617 16 263 0.0 6.4 0.00 0.00 0.00 73 1011.2
20260506220243 16 228 0.0 6.4 0.00 0.00 0.00 73 1011.3
20260506215806 16 248 0.0 6.4 0.00 0.00 0.00 73 1011.3
20260506215604 16 276 0.0 4.8 0.00 0.00 0.00 73 1011.2
20260506215548 16 286 0.0 4.8 0.00 0.00 0.00 73 1011.2
20260506215411 16 286 0.0 4.8 0.00 0.00 0.00 72 1011.3
20260506215316 16 286 0.0 4.8 0.00 0.00 0.00 72 1011.2
20260506215245 17 288 0.0 4.8 0.00 0.00 0.00 72 1011.2
20260506214806 17 259 0.0 0.0 0.00 0.00 0.00 71 1011.2
20260506214541 17 259 0.0 0.0 0.00 0.00 0.00 72 1011.2
20260506214406 17 250 0.0 0.0 0.00 0.00 0.00 72 1011.1
20260506214207 17 201 0.0 0.0 0.00 0.00 0.00 72 1011.2
20260506214041 17 201 0.0 0.0 0.00 0.00 0.00 72 1011.2
20260506214004 17 201 0.0 0.0 0.00 0.00 0.00 72 1011.2
20260506213802 17 201 0.0 8.0 0.00 0.00 0.00 72 1011.2
20260506213538 17 201 0.0 8.0 0.00 0.00 0.00 72 1011.1
20260506213359 17 201 0.0 8.0 0.00 0.00 0.00 72 1011.1
20260506213157 17 223 0.0 8.0 0.00 0.00 0.00 72 1011.1
20260506213038 17 186 0.0 8.0 0.00 0.00 0.00 72 1011.1
20260506212956 17 190 0.0 8.0 0.00 0.00 0.00 72 1011.2
20260506212856 17 222 0.0 0.0 0.00 0.00 0.00 72 1011.1
20260506212537 17 273 0.0 0.0 0.00 0.00 0.00 72 1011.1
20260506212353 17 273 0.0 0.0 0.00 0.00 0.00 72 1011.2
20260506212156 17 273 0.0 0.0 0.00 0.00 0.00 72 1011.2
20260506212037 17 273 0.0 0.0 0.00 0.00 0.00 72 1011.1
20260506211948 17 273 0.0 0.0 0.00 0.00 0.00 72 1011.2
20260506211801 17 273 0.0 0.0 0.00 0.00 0.00 72 1011.2
20260506211703 17 273 0.0 0.0 0.00 0.00 0.00 72 1011.2
20260506211618 17 273 0.0 0.0 0.00 0.00 0.00 72 1011.2
20260506211252 17 273 0.0 0.0 0.00 0.00 0.00 72 1011.2
20260506210915 17 273 0.0 0.0 0.00 0.00 0.00 72 1011.2
20260506210747 17 273 0.0 0.0 0.00 0.00 0.00 71 1011.2
20260506210406 17 273 0.0 0.0 0.00 0.00 0.00 71 1011.1
20260506210311 17 273 0.0 0.0 0.00 0.00 0.00 71 1011.2
20260506205936 17 273 0.0 0.0 0.00 0.00 0.00 71 1011.2
20260506205734 17 273 0.0 0.0 0.00 0.00 0.00 71 1011.2
20260506205534 17 273 0.0 0.0 0.00 0.00 0.00 70 1011.2
20260506205335 18 273 0.0 0.0 0.00 0.00 0.00 71 1011.2
20260506205134 18 272 0.0 0.0 0.00 0.00 0.00 70 1011.1
20260506205032 18 273 0.0 0.0 0.00 0.00 0.00 70 1011.1
20260506204941 18 273 0.0 0.0 0.00 0.00 0.00 70 1011.0
20260506204839 18 273 0.0 0.0 0.00 0.00 0.00 70 1011.0
20260506204747 18 272 0.0 0.0 0.00 0.00 0.00 70 1011.0
20260506204335 18 273 0.0 0.0 0.00 0.00 0.00 70 1011.0
20260506204136 18 273 0.0 0.0 0.00 0.00 0.00 70 1011.2
20260506204029 18 272 0.0 0.0 0.00 0.00 0.00 70 1011.2
20260506203935 18 273 0.0 0.0 0.00 0.00 0.00 70 1011.2
20260506203735 18 273 0.0 0.0 0.00 0.00 0.00 69 1011.1
20260506203550 18 273 0.0 0.0 0.00 0.00 0.00 69 1011.1
20260506203334 18 273 0.0 0.0 0.00 0.00 0.00 69 1011.1
20260506203137 18 273 0.0 0.0 0.00 0.00 0.00 69 1011.2
20260506203033 18 273 0.0 0.0 0.00 0.00 0.00 69 1011.2
20260506202934 18 273 0.0 0.0 0.00 0.00 0.00 69 1011.2
20260506202738 18 273 0.0 0.0 0.00 0.00 0.00 69 1011.2
20260506202536 18 273 0.0 0.0 0.00 0.00 0.00 69 1011.1
20260506202342 18 273 0.0 0.0 0.00 0.00 0.00 69 1011.1
20260506202240 18 273 0.0 0.0 0.00 0.00 0.00 69 1011.1
20260506202213 18 273 0.0 0.0 0.00 0.00 0.00 69 1011.1
20260506202144 18 273 0.0 0.0 0.00 0.00 0.00 69 1011.1
20260506202055 18 273 0.0 0.0 0.00 0.00 0.00 68 1011.0
20260506201343 18 273 0.0 0.0 0.00 0.00 0.00 68 1011.0
20260506201248 18 273 0.0 0.0 0.00 0.00 0.00 68 1011.1
20260506201222 18 273 0.0 0.0 0.00 0.00 0.00 68 1011.1
20260506201153 18 273 0.0 0.0 0.00 0.00 0.00 68 1011.0
20260506200759 18 273 0.0 0.0 0.00 0.00 0.00 68 1011.0
20260506200335 18 273 0.0 0.0 0.00 0.00 0.00 68 1011.1
20260506200137 18 273 0.0 0.0 0.00 0.00 0.00 68 1011.0
20260506200033 18 273 0.0 0.0 0.00 0.00 0.00 68 1011.0
20260506195934 18 273 0.0 0.0 0.00 0.00 0.00 68 1010.9
20260506195736 18 273 0.0 0.0 0.00 0.00 0.00 68 1011.0
20260506195538 18 273 0.0 0.0 0.00 0.00 0.00 68 1011.0
20260506195446 18 273 0.0 0.0 0.00 0.00 0.00 68 1010.9
20260506195355 18 273 0.0 0.0 0.00 0.00 0.00 68 1010.9
20260506195323 18 273 0.0 0.0 0.00 0.00 0.00 68 1010.9
20260506194639 18 273 0.0 0.0 0.00 0.00 0.00 68 1010.9
20260506194136 18 273 0.0 0.0 0.00 0.00 0.00 68 1010.9
20260506194035 18 273 0.0 0.0 0.00 0.00 0.00 68 1010.9
20260506193934 18 273 0.0 0.0 0.00 0.00 0.00 68 1010.9
20260506193733 18 273 0.0 0.0 0.00 0.00 0.00 68 1010.9
20260506193535 19 275 0.0 0.0 0.00 0.00 0.00 68 1010.9
20260506193336 19 275 0.0 0.0 0.00 0.00 0.00 68 1010.7
20260506193137 19 275 0.0 0.0 0.00 0.00 0.00 67 1010.7
20260506193030 19 273 0.0 0.0 0.00 0.00 0.00 67 1010.5
20260506192937 19 273 0.0 0.0 0.00 0.00 0.00 67 1010.6
20260506192734 19 273 0.0 0.0 0.00 0.00 0.00 67 1010.5
20260506192534 19 273 0.0 0.0 0.00 0.00 0.00 67 1010.5
20260506192406 19 272 0.0 0.0 0.00 0.00 0.00 67 1010.4
20260506192309 19 258 0.0 0.0 0.00 0.00 0.00 67 1010.4
20260506191942 19 258 1.6 11.3 0.00 0.00 0.00 67 1010.3
20260506191849 19 258 1.6 11.3 0.00 0.00 0.00 67 1010.2
20260506191746 19 257 1.6 11.3 0.00 0.00 0.00 66 1010.2
20260506191427 19 255 1.6 11.3 0.00 0.00 0.00 66 1010.1
20260506191333 19 257 1.6 11.3 0.00 0.00 0.00 66 1010.2
20260506191308 20 257 1.6 11.3 0.00 0.00 0.00 66 1010.2
20260506190936 20 269 1.6 9.7 0.00 0.00 0.00 66 1010.3
20260506190624 20 274 1.6 9.7 0.00 0.00 0.00 66 1010.2
20260506190532 20 271 1.6 9.7 0.00 0.00 0.00 65 1010.2
20260506190408 20 249 1.6 9.7 0.00 0.00 0.00 65 1010.2
20260506190045 20 245 1.6 9.7 0.00 0.00 0.00 64 1010.0
20260506185535 20 250 0.0 9.7 0.00 0.00 0.00 63 1010.0
20260506185341 21 259 0.0 9.7 0.00 0.00 0.00 63 1010.0
20260506185244 21 233 0.0 4.8 0.00 0.00 0.00 62 1010.0
20260506185215 21 288 0.0 4.8 0.00 0.00 0.00 62 1010.0
20260506184736 21 290 1.6 11.3 0.00 0.00 0.00 60 1010.0
20260506184535 21 273 3.2 17.7 0.00 0.00 0.00 60 1010.0
20260506184335 21 302 4.8 17.7 0.00 0.00 0.00 58 1010.0
20260506184145 21 308 6.4 17.7 0.00 0.00 0.00 58 1009.8
20260506184117 21 342 8.0 17.7 0.00 0.00 0.00 58 1009.8
20260506184041 21 308 9.7 17.7 0.00 0.00 0.00 58 1009.8
20260506183938 21 328 9.7 17.7 0.00 0.00 0.00 58 1009.8
20260506183838 21 351 9.7 19.3 0.00 0.00 0.00 59 1009.8
20260506183443 21 328 11.3 19.3 0.00 0.00 0.00 59 1009.7
20260506183416 21 323 11.3 19.3 0.00 0.00 0.00 59 1009.6
20260506183313 21 330 9.7 19.3 0.00 0.00 0.00 58 1009.6
20260506183219 21 318 9.7 19.3 0.00 0.00 0.00 59 1009.6
20260506183125 21 351 8.0 17.7 0.00 0.00 0.00 58 1009.6
20260506183035 21 296 6.4 16.1 0.00 0.00 0.00 59 1009.6
20260506182703 21 324 3.2 14.5 0.00 0.00 0.00 59 1009.6
20260506182636 21 305 3.2 14.5 0.00 0.00 0.00 59 1009.6
20260506182544 21 340 1.6 9.7 0.00 0.00 0.00 58 1009.5
20260506182444 21 335 1.6 8.0 0.00 0.00 0.00 58 1009.5
20260506182143 21 278 1.6 11.3 0.00 0.00 0.00 58 1009.5
20260506181821 21 351 1.6 11.3 0.00 0.00 0.00 58 1009.6
20260506180051 21 314 3.2 12.9 0.00 0.00 0.00 58 1009.5
20260506175935 21 312 3.2 12.9 0.00 0.00 0.00 58 1009.5
20260506175735 21 321 3.2 14.5 0.00 0.00 0.00 58 1009.4
20260506175554 21 332 3.2 14.5 0.00 0.00 0.00 58 1009.4
20260506175500 21 300 3.2 14.5 0.00 0.00 0.00 58 1009.5
20260506175408 21 312 3.2 14.5 0.00 0.00 0.00 58 1009.4
20260506175052 22 356 3.2 14.5 0.00 0.00 0.00 58 1009.4
20260506174945 22 324 3.2 14.5 0.00 0.00 0.00 58 1009.3
20260506174850 22 346 3.2 14.5 0.00 0.00 0.00 58 1009.3
20260506174134 22 307 4.8 14.5 0.00 0.00 0.00 58 1009.3
20260506174030 22 296 4.8 16.1 0.00 0.00 0.00 58 1009.1
20260506173935 22 334 4.8 16.1 0.00 0.00 0.00 58 1009.2
20260506173736 22 304 4.8 16.1 0.00 0.00 0.00 57 1009.2
20260506173532 22 332 6.4 16.1 0.00 0.00 0.00 57 1009.0
20260506173336 22 319 6.4 17.7 0.00 0.00 0.00 57 1009.1
20260506173137 22 332 4.8 17.7 0.00 0.00 0.00 57 1009.1
20260506173051 22 317 4.8 17.7 0.00 0.00 0.00 57 1009.0
20260506172949 22 339 4.8 17.7 0.00 0.00 0.00 57 1009.1
20260506172851 22 317 4.8 17.7 0.00 0.00 0.00 57 1009.0
20260506172752 22 336 3.2 17.7 0.00 0.00 0.00 57 1009.0
20260506172443 22 319 1.6 12.9 0.00 0.00 0.00 57 1009.0
20260506172029 22 303 3.2 12.9 0.00 0.00 0.00 57 1009.0
20260506171936 22 317 3.2 12.9 0.00 0.00 0.00 57 1009.0
20260506171734 22 340 3.2 12.9 0.00 0.00 0.00 57 1008.9
20260506171533 22 329 1.6 12.9 0.00 0.00 0.00 57 1008.9
20260506171334 22 327 1.6 9.7 0.00 0.00 0.00 57 1009.0
20260506171134 22 305 1.6 9.7 0.00 0.00 0.00 57 1008.9
20260506171030 22 335 1.6 9.7 0.00 0.00 0.00 56 1008.9
20260506170935 22 323 0.0 8.0 0.00 0.00 0.00 56 1009.0
20260506170733 22 332 0.0 8.0 0.00 0.00 0.00 56 1008.9
20260506170534 22 317 0.0 8.0 0.00 0.00 0.00 56 1008.9
20260506170335 22 320 0.0 1.6 0.00 0.00 0.00 56 1008.9
20260506170136 22 332 0.0 0.0 0.00 0.00 0.00 56 1008.9
20260506170041 22 332 0.0 0.0 0.00 0.00 0.00 56 1008.8
20260506170007 22 332 0.0 0.0 0.00 0.00 0.00 56 1008.8
20260506165842 22 301 0.0 9.7 0.00 0.00 0.00 56 1008.8
20260506165532 22 292 0.0 9.7 0.00 0.00 0.00 56 1008.8
20260506165406 22 304 0.0 9.7 0.00 0.00 0.00 56 1008.8
20260506165311 23 294 0.0 9.7 0.00 0.00 0.00 56 1008.8
20260506164947 23 288 0.0 9.7 0.00 0.00 0.00 56 1008.8
20260506164851 23 316 0.0 0.0 0.00 0.00 0.00 55 1008.8
20260506164540 23 286 0.0 4.8 0.00 0.00 0.00 55 1008.8
20260506164450 23 281 1.6 9.7 0.00 0.00 0.00 55 1008.8
20260506164401 23 297 1.6 9.7 0.00 0.00 0.00 55 1008.8
20260506164046 23 333 1.6 9.7 0.00 0.00 0.00 55 1008.8
20260506163626 23 303 3.2 9.7 0.00 0.00 0.00 54 1008.9
20260506163526 23 292 3.2 9.7 0.00 0.00 0.00 54 1008.8
20260506163438 23 324 3.2 9.7 0.00 0.00 0.00 54 1008.7
20260506163409 23 309 3.2 9.7 0.00 0.00 0.00 54 1008.8
20260506163031 23 305 3.2 12.9 0.00 0.00 0.00 53 1008.7
20260506162905 23 331 3.2 12.9 0.00 0.00 0.00 53 1008.7
20260506162237 23 338 4.8 16.1 0.00 0.00 0.00 53 1008.7
20260506161735 23 324 6.4 16.1 0.00 0.00 0.00 53 1008.7
20260506161539 23 329 6.4 16.1 0.00 0.00 0.00 52 1008.7
20260506161334 23 351 6.4 16.1 0.00 0.00 0.00 52 1008.8
20260506161134 23 317 6.4 16.1 0.00 0.00 0.00 52 1008.8
20260506161029 23 302 6.4 16.1 0.00 0.00 0.00 52 1008.8
20260506160935 23 323 6.4 16.1 0.00 0.00 0.00 51 1008.8
20260506160736 24 315 6.4 16.1 0.00 0.00 0.00 51 1008.8
20260506160534 24 329 6.4 16.1 0.00 0.00 0.00 51 1008.7
20260506160335 24 335 6.4 16.1 0.00 0.00 0.00 50 1008.8
20260506160135 24 351 6.4 16.1 0.00 0.00 0.00 50 1008.8
20260506160044 24 311 4.8 16.1 0.00 0.00 0.00 50 1008.7
20260506155937 24 342 6.4 16.1 0.00 0.00 0.00 50 1008.7
20260506155734 24 342 4.8 14.5 0.00 0.00 0.00 49 1008.8
20260506155535 25 356 4.8 14.5 0.00 0.00 0.00 50 1008.7
20260506155335 25 334 6.4 14.5 0.00 0.00 0.00 49 1008.7
20260506155135 25 338 6.4 16.1 0.00 0.00 0.00 49 1008.7
20260506155029 25 319 8.0 16.1 0.00 0.00 0.00 49 1008.7
20260506154935 25 347 6.4 16.1 0.00 0.00 0.00 49 1008.7
20260506154735 25 325 6.4 16.1 0.00 0.00 0.00 48 1008.7
20260506154532 25 310 6.4 16.1 0.00 0.00 0.00 48 1008.7
20260506154334 25 324 6.4 16.1 0.00 0.00 0.00 48 1008.7
20260506154215 25 316 4.8 16.1 0.00 0.00 0.00 48 1008.8
20260506154143 25 313 4.8 14.5 0.00 0.00 0.00 48 1008.8
20260506154105 25 332 4.8 14.5 0.00 0.00 0.00 48 1008.8
20260506154015 25 332 4.8 14.5 0.00 0.00 0.00 47 1008.8
20260506153921 25 329 4.8 16.1 0.00 0.00 0.00 47 1008.9
20260506153617 25 347 4.8 16.1 0.00 0.00 0.00 47 1008.8
20260506152935 25 298 4.8 16.1 0.00 0.00 0.00 47 1008.9
20260506152759 25 344 4.8 16.1 0.00 0.00 0.00 47 1008.9
20260506152532 25 317 3.2 12.9 0.00 0.00 0.00 46 1009.0
20260506152334 25 11 3.2 9.7 0.00 0.00 0.00 46 1008.9
20260506152135 25 333 4.8 14.5 0.00 0.00 0.00 45 1008.9
20260506152031 25 329 4.8 14.5 0.00 0.00 0.00 45 1008.9
20260506151936 25 338 4.8 16.1 0.00 0.00 0.00 45 1008.9
20260506151741 25 319 6.4 17.7 0.00 0.00 0.00 45 1008.9
20260506151645 25 316 4.8 17.7 0.00 0.00 0.00 45 1008.9
20260506151550 25 317 4.8 17.7 0.00 0.00 0.00 45 1008.9
20260506151457 25 315 6.4 17.7 0.00 0.00 0.00 45 1008.9
20260506150807 25 346 4.8 14.5 0.00 0.00 0.00 45 1009.0
20260506150711 25 332 4.8 14.5 0.00 0.00 0.00 44 1008.9
20260506150307 25 329 4.8 12.9 0.00 0.00 0.00 44 1008.9
20260506145933 25 308 4.8 17.7 0.00 0.00 0.00 44 1009.0
20260506145744 25 344 6.4 17.7 0.00 0.00 0.00 44 1008.9
20260506145533 25 340 6.4 17.7 0.00 0.00 0.00 44 1008.9
20260506145333 25 305 6.4 17.7 0.00 0.00 0.00 44 1008.9
20260506145132 25 329 8.0 17.7 0.00 0.00 0.00 43 1008.9
20260506145032 25 351 8.0 17.7 0.00 0.00 0.00 43 1008.9
20260506144938 25 321 8.0 17.7 0.00 0.00 0.00 44 1008.9
20260506144837 25 334 6.4 19.3 0.00 0.00 0.00 43 1008.9
20260506144532 25 351 8.0 19.3 0.00 0.00 0.00 44 1009.0
20260506144332 25 312 8.0 19.3 0.00 0.00 0.00 44 1008.9
20260506144132 25 340 8.0 19.3 0.00 0.00 0.00 44 1009.0
20260506144031 25 314 8.0 19.3 0.00 0.00 0.00 44 1008.9
20260506143938 25 327 9.7 19.3 0.00 0.00 0.00 44 1008.9
20260506143730 25 345 8.0 19.3 0.00 0.00 0.00 44 1009.0
20260506143536 25 351 9.7 19.3 0.00 0.00 0.00 44 1009.0
20260506143532 25 328 9.7 19.3 0.00 0.00 0.00 44 1009.0
20260506143400 25 335 9.7 19.3 0.00 0.00 0.00 44 1009.0
20260506143305 25 328 9.7 19.3 0.00 0.00 0.00 44 1008.9
20260506142925 25 293 9.7 19.3 0.00 0.00 0.00 43 1009.0
20260506142804 25 317 9.7 19.3 0.00 0.00 0.00 43 1009.0
20260506142641 25 304 8.0 19.3 0.00 0.00 0.00 43 1009.0
20260506142634 25 327 8.0 19.3 0.00 0.00 0.00 43 1009.0
20260506142124 26 320 4.8 19.3 0.00 0.00 0.00 42 1008.9
20260506142029 26 322 3.2 19.3 0.00 0.00 0.00 42 1008.9
20260506141928 26 329 3.2 14.5 0.00 0.00 0.00 42 1008.9
20260506141737 26 346 1.6 14.5 0.00 0.00 0.00 42 1008.9
20260506141647 26 342 1.6 12.9 0.00 0.00 0.00 42 1008.8
20260506141640 26 315 1.6 12.9 0.00 0.00 0.00 42 1008.8
20260506141236 26 345 1.6 12.9 0.00 0.00 0.00 42 1008.8
20260506141213 26 287 1.6 12.9 0.00 0.00 0.00 42 1008.8
20260506140722 26 10 1.6 12.9 0.00 0.00 0.00 41 1008.9
20260506140532 26 32 1.6 12.9 0.00 0.00 0.00 41 1008.9
20260506140522 26 15 1.6 12.9 0.00 0.00 0.00 41 1008.9
20260506140323 26 15 1.6 12.9 0.00 0.00 0.00 41 1009.0
20260506140123 26 325 1.6 12.9 0.00 0.00 0.00 41 1008.8
20260506140032 26 351 1.6 12.9 0.00 0.00 0.00 41 1008.9
20260506135922 26 32 1.6 12.9 0.00 0.00 0.00 41 1008.9
20260506135720 26 1 1.6 16.1 0.00 0.00 0.00 40 1008.8
20260506135531 27 1 1.6 16.1 0.00 0.00 0.00 40 1008.7
20260506135518 27 20 1.6 16.1 0.00 0.00 0.00 40 1008.7
20260506135317 27 36 1.6 16.1 0.00 0.00 0.00 41 1008.7
20260506135118 26 38 1.6 16.1 0.00 0.00 0.00 41 1008.7
20260506135029 26 90 1.6 16.1 0.00 0.00 0.00 41 1008.7
20260506134931 26 40 1.6 16.1 0.00 0.00 0.00 41 1008.7
20260506134825 27 48 1.6 14.5 0.00 0.00 0.00 40 1008.8
20260506134515 27 39 1.6 14.5 0.00 0.00 0.00 40 1008.7
20260506134326 27 19 1.6 12.9 0.00 0.00 0.00 40 1008.7
20260506134228 27 47 1.6 14.5 0.00 0.00 0.00 40 1008.8
20260506134207 27 73 1.6 14.5 0.00 0.00 0.00 40 1008.8
20260506133715 27 40 1.6 16.1 0.00 0.00 0.00 39 1008.8
20260506133529 27 80 3.2 16.1 0.00 0.00 0.00 39 1008.8
20260506133514 27 240 3.2 16.1 0.00 0.00 0.00 39 1008.8
20260506133314 27 286 3.2 16.1 0.00 0.00 0.00 39 1008.7
20260506133141 27 61 1.6 16.1 0.00 0.00 0.00 39 1008.8
20260506133116 27 191 1.6 16.1 0.00 0.00 0.00 39 1008.7
20260506133034 27 61 3.2 16.1 0.00 0.00 0.00 39 1008.9
20260506132600 26 127 3.2 16.1 0.00 0.00 0.00 40 1008.8
20260506132510 26 43 3.2 16.1 0.00 0.00 0.00 40 1008.9
20260506132359 26 121 3.2 22.5 0.00 0.00 0.00 40 1008.9
20260506132259 26 118 4.8 25.7 0.00 0.00 0.00 40 1008.9
20260506131908 26 103 4.8 25.7 0.00 0.00 0.00 40 1009.0
20260506131706 26 351 4.8 25.7 0.00 0.00 0.00 40 1009.0
20260506131539 26 86 4.8 25.7 0.00 0.00 0.00 41 1009.0
20260506131523 26 5 4.8 25.7 0.00 0.00 0.00 41 1009.1
20260506131318 26 1 4.8 25.7 0.00 0.00 0.00 41 1009.0
20260506131221 26 6 6.4 19.3 0.00 0.00 0.00 42 1009.1
20260506131201 26 18 6.4 19.3 0.00 0.00 0.00 42 1009.1
20260506130706 26 69 6.4 20.9 0.00 0.00 0.00 40 1009.1
20260506130532 26 322 6.4 20.9 0.00 0.00 0.00 40 1009.1
20260506130511 26 20 6.4 20.9 0.00 0.00 0.00 40 1009.0
20260506130307 27 22 4.8 20.9 0.00 0.00 0.00 39 1009.1
20260506130150 27 56 3.2 20.9 0.00 0.00 0.00 40 1009.1
20260506130131 27 32 3.2 20.9 0.00 0.00 0.00 40 1009.1
20260506130052 27 10 3.2 20.9 0.00 0.00 0.00 40 1009.1
20260506125947 27 306 3.2 17.7 0.00 0.00 0.00 40 1009.2
20260506125644 27 1 1.6 12.9 0.00 0.00 0.00 40 1009.3
20260506125108 27 16 3.2 14.5 0.00 0.00 0.00 41 1009.3
20260506125029 27 64 3.2 14.5 0.00 0.00 0.00 41 1009.3
20260506124907 27 251 3.2 14.5 0.00 0.00 0.00 41 1009.3
20260506124724 27 344 1.6 14.5 0.00 0.00 0.00 41 1009.4
20260506124639 27 24 1.6 14.5 0.00 0.00 0.00 41 1009.4
20260506124623 27 49 1.6 14.5 0.00 0.00 0.00 41 1009.4
20260506124528 27 7 1.6 12.9 0.00 0.00 0.00 41 1009.4
20260506124206 27 274 1.6 12.9 0.00 0.00 0.00 41 1009.4
20260506124127 27 340 0.0 12.9 0.00 0.00 0.00 40 1009.4
20260506124031 27 351 0.0 9.7 0.00 0.00 0.00 40 1009.5